Regional Weather Roundup
Issued by NWS State College, PA

Home | Current Version | Previous Version | Graphics & Text | Print | Product List | Glossary Off
Versions: 1 2 3 4 5 6 7 8 9 10 11 12 13 14 15 16 17 18 19 20 21 22 23 24 25 26 27 28 29 30 31 32 33 34 35 36 37 38 39 40 41 42 43 44 45 46 47 48 49 50

000
ASUS41 KCTP 191103
RWRCTP

REGIONAL WEATHER ROUNDUP
NATIONAL WEATHER SERVICE STATE COLLEGE PA
700 AM EDT FRI SEP 19 2014

Note: "fair" indicates few or no clouds below 12,000 feet with no
significant weather and/or obstructions to visibility.

* = STATION THAT DOES NOT REPORT PRECIPITATION /E.G. RAIN...SNOW...ETC/
    THUNDER OR FOG.

PAZ002>004-007>009-013>016-020>023-029>032-191200-
WESTERN PENNSYLVANIA

CITY           SKY/WX    TMP DP  RH WIND       PRES   REMARKS
ERIE           CLEAR     47  43  86 CALM      30.25R
MEADVILLE      PTCLDY    45  43  93 VRB3      30.24S
FRANKLIN*      CLOUDY    45  41  87 E6        30.26R VSB 3/4
NEW CASTLE     NOT AVBL
BEAVER COUNTY  CLEAR     48  46  93 CALM      30.23
BUTLER*        CLEAR     45  43  93 NE6       30.25R
PITTSBURGH INT PTCLDY    50  47  89 N5        30.22R
PITTSBURGH     CLEAR     50  46  86 E5        30.21R
INDIANA*       CLEAR     48  46  93 E7        30.28R
LATROBE        PTCLDY    45  45 100 CALM      30.23R
WASHINGTON CO* CLOUDY    43  39  87 CALM      30.21S VSB 1/4
$$

PAZ004>006-010>012-017>019-024>028-033>037-041-042-045-046-049>053-191200-
CENTRAL PENNSYLVANIA

CITY           SKY/WX    TMP DP  RH WIND       PRES   REMARKS
BRADFORD       CLOUDY    44  41  89 CALM      30.26R
DUBOIS         CLEAR     42  42 100 E7        30.25R FOG
CLEARFIELD     FOG       42  42 100 N5        30.28R VSB 1/4
JOHNSTOWN      MOCLDY    45  43  93 E5        30.24R FOG
ALTOONA        CLOUDY    47  47 100 CALM      30.26R FOG
STATE COLLEGE  CLEAR     46  46 100 NE5       30.27R FOG
WILLIAMSPORT   CLEAR     46  43  89 NW3       30.29R
SELINSGROVE    CLEAR     44  42  93 CALM      30.29R
FT INDIANTOWN  CLEAR     52  48  86 NE5       30.25R
CAPITAL CITY   CLEAR     48  46  93 SW3       30.26R
HARRISBURG     CLEAR     52  47  83 NW3       30.25R
YORK           CLEAR     42  41  96 CALM      30.25R FOG
$$

PAZ038>040-043-044-047-048-054-055-060>062-067>071-191200-
EASTERN PENNSYLVANIA

CITY           SKY/WX    TMP DP  RH WIND       PRES   REMARKS
SCRANTON       PTCLDY    44  41  89 CALM      30.28R
MOUNT POCONO   CLOUDY    45  42  89 N5        30.26R
ALLENTOWN      CLEAR     49  44  83 NE5       30.27R
QUAKERTOWN*    MOSUNNY   50  46  87 NE3       30.27R
READING        CLEAR     51  47  86 CALM      30.25R
LANCASTER      CLEAR     48  45  89 W3        30.25R
COATESVILLE    SUNNY     52  48  87 NE6       30.24R
POTTSTOWN      CLEAR     49  46  90 CALM      30.26R
BLUE BELL      CLEAR     54  50  87 NE5       30.23R
DOYLESTOWN     CLEAR     50  48  93 N7        30.24R
WILLOW GROVE   NOT AVBL
NORTH PHILA    CLEAR     56  47  71 N9        30.25R
PHILADELPHIA   PTCLDY    58  49  72 NE14      30.23R
$$


USA.gov is the U.S. government's official web portal to all federal, state and local government web resources and services.